|
ATLAS 3B CENTAUR R/B - Orbit
|
Unspecified;
17:57:18
| Home | Info | Passes |
|
View from above orbital plane
|
View from above satellite
|
Ground track
|
The orbit data is extracted from the following two-line orbital elements,
1 28118U 03057B 13137.13849307 .00106705 00000-0 23897-2 0 7803
2 28118 028.1565 105.7235 4312175 037.3736 040.3370 06.94949995166525
| Epoch (UTC): | 17 May 2013 03:19:25 |
| Eccentricity: | 0.4312175 |
| inclination: | 28.1565° |
| perigee height: | 219 km |
| apogee height: | 10223 km |
| right ascension of ascending node: | 105.7235° |
| argument of perigee: | 37.3736° |
| revolutions per day: | 6.94949995 |
| mean anomaly at epoch: | 40.3370° |
| orbit number at epoch: | 16652 |
The dashed part of the orbit path shows where the satellite is in the earth's shadow,
|
|